When you browse on this site, cookies collect data to enhance your experience and personalize the content and advertising you see.
Visit our Privacy Policy to learn more. By continuing to use the site, you agree to this use of cookies and data.
  • In Österreich
  • Länderverzeichnis
  • Für 7 Tage
  • Wassertemperatur
  • Wetterkarte
  • News
  • Widgets
  • user-avatar
    Anmelden

    Stündliche Wetter San Luis

    Heute, 24 Januar, Freitag

    Zeit Temperatur Niederschläge Wind Luftdruck Luftfeuchtigkeit
    00:00 +28°C° 0 mm 6 m/S 696 mmHg 33%
    01:00 +28°C° 0 mm 7 m/S 696 mmHg 33%
    02:00 +28°C° 0 mm 8 m/S 696 mmHg 33%
    03:00 +28°C° 0 mm 7 m/S 696 mmHg 35%
    04:00 +27°C° 0 mm 7 m/S 697 mmHg 37%
    05:00 +27°C° 0 mm 6 m/S 697 mmHg 38%
    06:00 +28°C° 0 mm 6 m/S 698 mmHg 38%
    07:00 +28°C° 0 mm 5 m/S 698 mmHg 38%
    08:00 +29°C° 0 mm 5 m/S 699 mmHg 38%
    09:00 +30°C° 0 mm 4 m/S 699 mmHg 36%
    10:00 +33°C° 0 mm 4 m/S 699 mmHg 33%
    11:00 +34°C° 0 mm 4 m/S 699 mmHg 30%
    12:00 +35°C° 0 mm 3 m/S 699 mmHg 28%
    13:00 +36°C° 0 mm 3 m/S 698 mmHg 26%
    14:00 +37°C° 0 mm 2 m/S 698 mmHg 25%
    15:00 +37°C° 0 mm 2 m/S 697 mmHg 24%
    16:00 +37°C° 0 mm 2 m/S 696 mmHg 24%
    17:00 +36°C° 0 mm 1 m/S 695 mmHg 23%
    18:00 +34°C° 0 mm 1 m/S 695 mmHg 28%
    19:00 +32°C° 0 mm 1 m/S 695 mmHg 32%
    20:00 +30°C° 0 mm 1 m/S 695 mmHg 37%
    21:00 +29°C° 0 mm 1 m/S 695 mmHg 35%
    22:00 +28°C° 0 mm 2 m/S 696 mmHg 33%
    23:00 +28°C° 0 mm 3 m/S 696 mmHg 31%

    Morgen, 25 Januar, Samstag

    Zeit Temperatur Niederschläge Wind Luftdruck Luftfeuchtigkeit
    00:00 +28°C° 0 mm 3 m/S 696 mmHg 29%
    01:00 +27°C° 0 mm 3 m/S 695 mmHg 28%
    02:00 +27°C° 0 mm 4 m/S 695 mmHg 27%
    03:00 +27°C° 0 mm 4 m/S 695 mmHg 27%
    04:00 +26°C° 0 mm 3 m/S 696 mmHg 28%
    05:00 +26°C° 0 mm 3 m/S 696 mmHg 28%
    06:00 +28°C° 0 mm 3 m/S 697 mmHg 27%
    07:00 +30°C° 0 mm 3 m/S 697 mmHg 26%
    08:00 +31°C° 0 mm 2 m/S 698 mmHg 25%
    09:00 +34°C° 0 mm 2 m/S 698 mmHg 23%
    10:00 +35°C° 0 mm 2 m/S 698 mmHg 22%
    11:00 +36°C° 0 mm 2 m/S 698 mmHg 21%
    12:00 +37°C° 0 mm 2 m/S 698 mmHg 20%
    13:00 +38°C° 0 mm 2 m/S 697 mmHg 19%
    14:00 +39°C° 0 mm 2 m/S 697 mmHg 18%
    15:00 +39°C° 0 mm 3 m/S 696 mmHg 18%
    16:00 +39°C° 0 mm 3 m/S 696 mmHg 17%
    17:00 +40°C° 0 mm 4 m/S 695 mmHg 17%
    18:00 +37°C° 0 mm 4 m/S 695 mmHg 19%
    19:00 +34°C° 0 mm 4 m/S 695 mmHg 21%
    20:00 +32°C° 0 mm 4 m/S 695 mmHg 23%
    21:00 +30°C° 0 mm 5 m/S 695 mmHg 24%
    22:00 +29°C° 0 mm 5 m/S 696 mmHg 25%
    23:00 +28°C° 0 mm 5 m/S 696 mmHg 26%

    übermorgen, 26 Januar, Sonntag

    Zeit Temperatur Niederschläge Wind Luftdruck Luftfeuchtigkeit
    00:00 +28°C° 0 mm 5 m/S 696 mmHg 26%
    01:00 +28°C° 0 mm 5 m/S 695 mmHg 26%
    02:00 +28°C° 0 mm 5 m/S 695 mmHg 27%
    03:00 +27°C° 0 mm 5 m/S 695 mmHg 27%
    04:00 +27°C° 0 mm 5 m/S 695 mmHg 27%
    05:00 +27°C° 0 mm 5 m/S 695 mmHg 27%
    06:00 +28°C° 0 mm 4 m/S 696 mmHg 26%
    07:00 +29°C° 0 mm 3 m/S 696 mmHg 26%
    08:00 +31°C° 0 mm 2 m/S 697 mmHg 25%
    09:00 +32°C° 0 mm 2 m/S 697 mmHg 23%
    10:00 +34°C° 0 mm 2 m/S 697 mmHg 22%
    11:00 +36°C° 0 mm 2 m/S 698 mmHg 20%
    12:00 +36°C° 0.1 mm 2 m/S 697 mmHg 20%
    13:00 +37°C° 0.1 mm 2 m/S 697 mmHg 20%
    14:00 +37°C° 0.1 mm 2 m/S 697 mmHg 19%
    15:00 +37°C° 0.1 mm 3 m/S 697 mmHg 19%
    16:00 +37°C° 0.1 mm 3 m/S 696 mmHg 19%
    17:00 +37°C° 0.1 mm 4 m/S 696 mmHg 19%
    18:00 +35°C° 0 mm 4 m/S 696 mmHg 25%
    19:00 +33°C° 0 mm 5 m/S 696 mmHg 31%
    20:00 +29°C° 0 mm 5 m/S 696 mmHg 37%
    21:00 +29°C° 0 mm 5 m/S 697 mmHg 37%
    22:00 +28°C° 0 mm 4 m/S 697 mmHg 36%
    23:00 +27°C° 0 mm 4 m/S 698 mmHg 36%

    27 Januar, Montag

    Zeit Temperatur Niederschläge Wind Luftdruck Luftfeuchtigkeit
    00:00 +27°C° 0 mm 3 m/S 698 mmHg 37%
    01:00 +26°C° 0 mm 3 m/S 698 mmHg 37%
    02:00 +26°C° 0 mm 3 m/S 698 mmHg 38%
    03:00 +25°C° 0 mm 3 m/S 698 mmHg 42%
    04:00 +24°C° 0 mm 3 m/S 698 mmHg 46%
    05:00 +22°C° 0 mm 3 m/S 698 mmHg 50%
    06:00 +25°C° 0 mm 3 m/S 699 mmHg 46%
    07:00 +26°C° 0 mm 2 m/S 699 mmHg 43%
    08:00 +28°C° 0 mm 2 m/S 699 mmHg 39%
    09:00 +30°C° 0.1 mm 3 m/S 699 mmHg 35%
    10:00 +33°C° 0.1 mm 3 m/S 699 mmHg 32%
    11:00 +35°C° 0.1 mm 3 m/S 699 mmHg 28%
    12:00 +35°C° 0.1 mm 4 m/S 699 mmHg 29%
    13:00 +35°C° 0.1 mm 5 m/S 698 mmHg 31%
    14:00 +35°C° 0.1 mm 6 m/S 697 mmHg 32%
    15:00 +34°C° 0.2 mm 7 m/S 697 mmHg 35%
    16:00 +33°C° 0.2 mm 9 m/S 696 mmHg 38%
    17:00 +32°C° 0.2 mm 10 m/S 696 mmHg 41%
    18:00 +28°C° 1.1 mm 10 m/S 696 mmHg 49%
    19:00 +26°C° 1.1 mm 9 m/S 696 mmHg 57%
    20:00 +22°C° 1.1 mm 9 m/S 696 mmHg 64%
    21:00 +23°C° 0 mm 8 m/S 696 mmHg 60%
    22:00 +23°C° 0 mm 8 m/S 696 mmHg 56%
    23:00 +23°C° 0 mm 7 m/S 696 mmHg 51%

    28 Januar, Dienstag

    Zeit Temperatur Niederschläge Wind Luftdruck Luftfeuchtigkeit
    00:00 +23°C° 0 mm 6 m/S 696 mmHg 51%
    01:00 +23°C° 0 mm 6 m/S 696 mmHg 50%
    02:00 +23°C° 0 mm 5 m/S 696 mmHg 50%
    03:00 +23°C° 0 mm 5 m/S 696 mmHg 50%
    04:00 +23°C° 0 mm 5 m/S 695 mmHg 50%
    05:00 +23°C° 0 mm 5 m/S 695 mmHg 51%
    06:00 +25°C° 0 mm 5 m/S 695 mmHg 46%
    07:00 +27°C° 0 mm 6 m/S 696 mmHg 42%
    08:00 +29°C° 0 mm 6 m/S 696 mmHg 37%
    09:00 +30°C° 0 mm 5 m/S 696 mmHg 35%
    10:00 +33°C° 0 mm 5 m/S 696 mmHg 32%
    11:00 +34°C° 0 mm 4 m/S 697 mmHg 29%
    12:00 +35°C° 0 mm 4 m/S 696 mmHg 28%
    13:00 +36°C° 0 mm 3 m/S 695 mmHg 26%
    14:00 +36°C° 0 mm 3 m/S 695 mmHg 25%
    15:00 +36°C° 0 mm 2 m/S 694 mmHg 24%
    16:00 +36°C° 0 mm 2 m/S 693 mmHg 24%
    17:00 +36°C° 0 mm 2 m/S 692 mmHg 24%
    18:00 +34°C° 0 mm 2 m/S 692 mmHg 28%
    19:00 +31°C° 0 mm 2 m/S 692 mmHg 32%
    20:00 +29°C° 0 mm 2 m/S 691 mmHg 36%
    21:00 +29°C° 0.1 mm 3 m/S 692 mmHg 40%
    22:00 +28°C° 0.1 mm 3 m/S 692 mmHg 44%
    23:00 +27°C° 0.1 mm 4 m/S 692 mmHg 48%

    29 Januar, Mittwoch

    Zeit Temperatur Niederschläge Wind Luftdruck Luftfeuchtigkeit
    00:00 +26°C° 0.2 mm 4 m/S 692 mmHg 51%
    01:00 +26°C° 0.2 mm 5 m/S 692 mmHg 54%
    02:00 +25°C° 0.2 mm 5 m/S 692 mmHg 57%
    03:00 +23°C° 2.6 mm 6 m/S 692 mmHg 67%
    04:00 +21°C° 2.6 mm 7 m/S 693 mmHg 78%
    05:00 +20°C° 2.6 mm 8 m/S 693 mmHg 88%
    06:00 +18°C° 2.7 mm 7 m/S 694 mmHg 87%
    07:00 +19°C° 2.7 mm 6 m/S 694 mmHg 86%
    08:00 +19°C° 2.7 mm 4 m/S 695 mmHg 85%
    09:00 +20°C° 0.6 mm 4 m/S 695 mmHg 77%
    10:00 +22°C° 0.6 mm 4 m/S 696 mmHg 70%
    11:00 +23°C° 0.6 mm 4 m/S 696 mmHg 62%
    12:00 +26°C° 0 mm 3 m/S 696 mmHg 56%
    13:00 +27°C° 0 mm 3 m/S 696 mmHg 50%
    14:00 +29°C° 0 mm 2 m/S 696 mmHg 44%
    15:00 +29°C° 0 mm 2 m/S 695 mmHg 43%
    16:00 +29°C° 0 mm 2 m/S 695 mmHg 41%
    17:00 +30°C° 0 mm 2 m/S 694 mmHg 40%
    18:00 +28°C° 0 mm 2 m/S 694 mmHg 45%
    19:00 +27°C° 0 mm 1 m/S 694 mmHg 49%
    20:00 +25°C° 0 mm 1 m/S 694 mmHg 54%
    21:00 +24°C° 0 mm 1 m/S 694 mmHg 56%
    22:00 +24°C° 0 mm 1 m/S 695 mmHg 58%
    23:00 +23°C° 0 mm 1 m/S 695 mmHg 60%
    Mehr zeigen